Time,TemperatureF,DewpointF,PressureIn,WindDirection,WindDirectionDegrees,WindSpeedMPH,WindSpeedGustMPH,Humidity,HourlyPrecipIn,Conditions,Clouds,dailyrainin,SoftwareType,DateUTC
2013-02-14 00:02:00,35.2,25.0,29.88,West,278,2.0,-999.0,66,0.00,,,0.00,WeatherSnoop3.0,2013-02-14 06:02:00,
2013-02-14 00:07:00,35.3,25.1,29.88,West,281,3.0,-999.0,66,0.00,,,0.00,WeatherSnoop3.0,2013-02-14 06:07:00,
2013-02-14 00:12:00,35.4,25.2,29.88,West,278,3.0,-999.0,66,0.00,,,0.00,WeatherSnoop3.0,2013-02-14 06:12:00,
2013-02-14 00:17:00,35.4,25.2,29.88,West,269,2.0,-999.0,66,0.00,,,0.00,WeatherSnoop3.0,2013-02-14 06:17:00,
2013-02-14 00:22:00,35.2,25.0,29.88,West,281,3.0,-999.0,66,0.00,,,0.00,WeatherSnoop3.0,2013-02-14 06:22:00,
2013-02-14 00:27:00,35.1,24.9,29.88,West,276,3.0,-999.0,66,0.00,,,0.00,WeatherSnoop3.0,2013-02-14 06:27:00,
2013-02-14 00:32:00,35.1,24.9,29.88,West,274,2.0,-999.0,66,0.00,,,0.00,WeatherSnoop3.0,2013-02-14 06:32:00,
2013-02-14 00:37:00,34.9,24.7,29.88,West,276,2.0,-999.0,66,0.00,,,0.00,WeatherSnoop3.0,2013-02-14 06:37:00,
2013-02-14 00:42:00,34.9,24.7,29.88,West,280,2.0,-999.0,66,0.00,,,0.00,WeatherSnoop3.0,2013-02-14 06:42:00,
2013-02-14 00:47:00,34.5,24.7,29.89,West,277,2.0,-999.0,67,0.00,,,0.00,WeatherSnoop3.0,2013-02-14 06:47:00,
2013-02-14 00:52:00,34.1,24.3,29.89,West,280,2.0,-999.0,67,0.00,,,0.00,WeatherSnoop3.0,2013-02-14 06:52:00,
2013-02-14 00:57:00,34.1,24.7,29.89,West,278,2.0,-999.0,68,0.00,,,0.00,WeatherSnoop3.0,2013-02-14 06:57:00,
2013-02-14 01:02:00,34.0,24.6,29.89,West,280,2.0,-999.0,68,0.00,,,0.00,WeatherSnoop3.0,2013-02-14 07:02:00,
2013-02-14 01:07:00,33.7,24.3,29.89,West,281,1.0,-999.0,68,0.00,,,0.00,WeatherSnoop3.0,2013-02-14 07:07:00,
2013-02-14 01:12:00,33.2,24.2,29.89,West,280,1.0,-999.0,69,0.00,,,0.00,WeatherSnoop3.0,2013-02-14 07:12:00,
2013-02-14 01:17:00,33.0,24.3,29.89,West,280,1.0,-999.0,70,0.00,,,0.00,WeatherSnoop3.0,2013-02-14 07:17:00,
2013-02-14 01:22:00,33.0,24.3,29.89,West,280,1.0,-999.0,70,0.00,,,0.00,WeatherSnoop3.0,2013-02-14 07:22:00,
2013-02-14 01:27:00,33.4,24.3,29.89,West,280,2.0,-999.0,69,0.00,,,0.00,WeatherSnoop3.0,2013-02-14 07:27:00,
2013-02-14 01:32:00,33.6,24.5,29.89,West,280,2.0,-999.0,69,0.00,,,0.00,WeatherSnoop3.0,2013-02-14 07:32:00,
2013-02-14 01:37:00,33.6,24.5,29.90,West,269,2.0,-999.0,69,0.00,,,0.00,WeatherSnoop3.0,2013-02-14 07:37:00,
2013-02-14 01:42:00,33.5,24.4,29.90,West,278,2.0,-999.0,69,0.00,,,0.00,WeatherSnoop3.0,2013-02-14 07:42:00,
2013-02-14 01:47:00,33.3,24.2,29.90,West,278,2.0,-999.0,69,0.00,,,0.00,WeatherSnoop3.0,2013-02-14 07:47:00,
2013-02-14 01:52:00,33.1,24.4,29.90,West,280,3.0,-999.0,70,0.00,,,0.00,WeatherSnoop3.0,2013-02-14 07:52:00,
2013-02-14 01:57:00,33.2,24.5,29.90,West,276,3.0,-999.0,70,0.00,,,0.00,WeatherSnoop3.0,2013-02-14 07:57:00,
2013-02-14 02:02:00,33.2,24.5,29.90,West,277,3.0,-999.0,70,0.00,,,0.00,WeatherSnoop3.0,2013-02-14 08:02:00,
2013-02-14 02:07:00,33.1,24.4,29.90,West,274,3.0,-999.0,70,0.00,,,0.00,WeatherSnoop3.0,2013-02-14 08:07:00,
2013-02-14 02:12:00,33.2,24.5,29.90,West,273,3.0,-999.0,70,0.00,,,0.00,WeatherSnoop3.0,2013-02-14 08:12:00,
2013-02-14 02:17:00,33.3,24.6,29.89,West,276,2.0,-999.0,70,0.00,,,0.00,WeatherSnoop3.0,2013-02-14 08:17:00,
2013-02-14 02:22:00,33.2,24.5,29.90,West,281,2.0,-999.0,70,0.00,,,0.00,WeatherSnoop3.0,2013-02-14 08:22:00,
2013-02-14 02:27:00,32.9,24.5,29.90,West,277,1.0,-999.0,71,0.00,,,0.00,WeatherSnoop3.0,2013-02-14 08:27:00,
2013-02-14 02:32:00,32.9,24.9,29.90,West,280,2.0,-999.0,72,0.00,,,0.00,WeatherSnoop3.0,2013-02-14 08:32:00,
2013-02-14 02:37:00,32.9,24.9,29.90,West,280,1.0,-999.0,72,0.00,,,0.00,WeatherSnoop3.0,2013-02-14 08:37:00,
2013-02-14 02:42:00,32.8,25.1,29.90,WNW,285,1.0,-999.0,73,0.00,,,0.00,WeatherSnoop3.0,2013-02-14 08:42:00,
2013-02-14 02:47:00,32.5,25.2,29.90,WNW,287,1.0,-999.0,74,0.00,,,0.00,WeatherSnoop3.0,2013-02-14 08:47:00,
2013-02-14 02:52:00,32.3,25.0,29.89,WNW,283,1.0,-999.0,74,0.00,,,0.00,WeatherSnoop3.0,2013-02-14 08:52:00,
2013-02-14 02:57:00,32.1,25.1,29.90,West,280,1.0,-999.0,75,0.00,,,0.00,WeatherSnoop3.0,2013-02-14 08:57:00,
2013-02-14 03:02:00,32.4,25.4,29.90,West,278,1.0,-999.0,75,0.00,,,0.00,WeatherSnoop3.0,2013-02-14 09:02:00,
2013-02-14 03:07:00,33.3,25.3,29.90,West,276,1.0,-999.0,72,0.00,,,0.00,WeatherSnoop3.0,2013-02-14 09:07:00,
2013-02-14 03:12:00,34.0,25.3,29.90,WSW,255,2.0,-999.0,70,0.00,,,0.00,WeatherSnoop3.0,2013-02-14 09:12:00,
2013-02-14 03:17:00,34.4,25.0,29.90,WNW,283,2.0,-999.0,68,0.00,,,0.00,WeatherSnoop3.0,2013-02-14 09:17:00,
2013-02-14 03:22:00,34.6,24.8,29.90,West,274,1.0,-999.0,67,0.00,,,0.00,WeatherSnoop3.0,2013-02-14 09:22:00,
2013-02-14 03:27:00,34.8,25.0,29.90,West,277,1.0,-999.0,67,0.00,,,0.00,WeatherSnoop3.0,2013-02-14 09:27:00,
2013-02-14 03:32:00,34.9,24.7,29.90,West,278,1.0,-999.0,66,0.00,,,0.00,WeatherSnoop3.0,2013-02-14 09:32:00,
2013-02-14 03:37:00,34.8,24.6,29.90,WNW,285,2.0,-999.0,66,0.00,,,0.00,WeatherSnoop3.0,2013-02-14 09:37:00,
2013-02-14 03:42:00,34.6,24.4,29.91,WNW,283,3.0,-999.0,66,0.00,,,0.00,WeatherSnoop3.0,2013-02-14 09:42:00,
2013-02-14 03:47:00,34.4,24.6,29.91,WNW,292,3.0,-999.0,67,0.00,,,0.00,WeatherSnoop3.0,2013-02-14 09:47:00,
2013-02-14 03:52:00,34.3,24.9,29.91,West,274,3.0,-999.0,68,0.00,,,0.00,WeatherSnoop3.0,2013-02-14 09:52:00,
2013-02-14 03:57:00,34.3,24.9,29.91,WNW,284,3.0,-999.0,68,0.00,,,0.00,WeatherSnoop3.0,2013-02-14 09:57:00,
2013-02-14 04:02:00,34.3,24.9,29.91,West,269,2.0,-999.0,68,0.00,,,0.00,WeatherSnoop3.0,2013-02-14 10:02:00,
2013-02-14 04:07:00,34.3,24.9,29.90,West,260,1.0,-999.0,68,0.00,,,0.00,WeatherSnoop3.0,2013-02-14 10:07:00,
2013-02-14 04:12:00,34.1,24.7,29.90,WNW,288,0.0,-999.0,68,0.00,,,0.00,WeatherSnoop3.0,2013-02-14 10:12:00,
2013-02-14 04:17:00,33.8,24.7,29.90,West,273,1.0,-999.0,69,0.00,,,0.00,WeatherSnoop3.0,2013-02-14 10:17:00,
2013-02-14 04:22:00,33.5,24.4,29.91,West,260,1.0,-999.0,69,0.00,,,0.00,WeatherSnoop3.0,2013-02-14 10:22:00,
2013-02-14 04:27:00,33.5,24.8,29.91,West,270,2.0,-999.0,70,0.00,,,0.00,WeatherSnoop3.0,2013-02-14 10:27:00,
2013-02-14 04:32:00,33.2,24.5,29.91,WNW,295,2.0,-999.0,70,0.00,,,0.00,WeatherSnoop3.0,2013-02-14 10:32:00,
2013-02-14 04:37:00,33.3,24.9,29.91,West,263,2.0,-999.0,71,0.00,,,0.00,WeatherSnoop3.0,2013-02-14 10:37:00,
2013-02-14 04:42:00,34.1,25.4,29.92,West,280,2.0,-999.0,70,0.00,,,0.00,WeatherSnoop3.0,2013-02-14 10:42:00,
2013-02-14 04:47:00,35.1,26.0,29.92,NW,311,1.0,-999.0,69,0.00,,,0.00,WeatherSnoop3.0,2013-02-14 10:47:00,
2013-02-14 04:52:00,35.3,25.8,29.92,ESE,102,1.0,-999.0,68,0.00,,,0.00,WeatherSnoop3.0,2013-02-14 10:52:00,
2013-02-14 04:57:00,35.1,25.6,29.92,WNW,298,2.0,-999.0,68,0.00,,,0.00,WeatherSnoop3.0,2013-02-14 10:57:00,
2013-02-14 05:02:00,34.9,25.4,29.92,West,273,0.0,-999.0,68,0.00,,,0.00,WeatherSnoop3.0,2013-02-14 11:02:00,
2013-02-14 05:07:00,34.8,25.7,29.93,West,277,3.0,-999.0,69,0.00,,,0.00,WeatherSnoop3.0,2013-02-14 11:07:00,
2013-02-14 05:12:00,34.6,25.5,29.93,WNW,285,4.0,-999.0,69,0.00,,,0.00,WeatherSnoop3.0,2013-02-14 11:12:00,
2013-02-14 05:17:00,34.4,25.6,29.93,WNW,289,1.0,-999.0,70,0.00,,,0.00,WeatherSnoop3.0,2013-02-14 11:17:00,
2013-02-14 05:22:00,34.5,25.7,29.93,WNW,285,1.0,-999.0,70,0.00,,,0.00,WeatherSnoop3.0,2013-02-14 11:22:00,
2013-02-14 05:27:00,34.4,25.6,29.94,WNW,292,1.0,-999.0,70,0.00,,,0.00,WeatherSnoop3.0,2013-02-14 11:27:00,
2013-02-14 05:32:00,34.1,25.7,29.94,WNW,300,2.0,-999.0,71,0.00,,,0.00,WeatherSnoop3.0,2013-02-14 11:32:00,
2013-02-14 05:37:00,33.9,25.5,29.94,WNW,291,2.0,-999.0,71,0.00,,,0.00,WeatherSnoop3.0,2013-02-14 11:37:00,
2013-02-14 05:42:00,33.7,25.7,29.94,West,280,0.0,-999.0,72,0.00,,,0.00,WeatherSnoop3.0,2013-02-14 11:42:00,
2013-02-14 05:47:00,33.4,25.7,29.94,WNW,293,1.0,-999.0,73,0.00,,,0.00,WeatherSnoop3.0,2013-02-14 11:47:00,
2013-02-14 05:52:00,33.2,25.5,29.94,WNW,294,1.0,-999.0,73,0.00,,,0.00,WeatherSnoop3.0,2013-02-14 11:52:00,
2013-02-14 05:57:00,32.9,25.5,29.94,NNE,32,0.0,-999.0,74,0.00,,,0.00,WeatherSnoop3.0,2013-02-14 11:57:00,
2013-02-14 06:02:00,32.6,25.2,29.95,West,280,0.0,-999.0,74,0.00,,,0.00,WeatherSnoop3.0,2013-02-14 12:02:00,
2013-02-14 06:07:00,32.3,25.3,29.95,WNW,292,0.0,-999.0,75,0.00,,,0.00,WeatherSnoop3.0,2013-02-14 12:07:00,
2013-02-14 06:12:00,32.1,25.4,29.95,WNW,293,1.0,-999.0,76,0.00,,,0.00,WeatherSnoop3.0,2013-02-14 12:12:00,
2013-02-14 06:17:00,31.8,25.4,29.95,West,274,1.0,-999.0,77,0.00,,,0.00,WeatherSnoop3.0,2013-02-14 12:17:00,
2013-02-14 06:22:00,31.7,25.3,29.95,West,281,0.0,-999.0,77,0.00,,,0.00,WeatherSnoop3.0,2013-02-14 12:22:00,
2013-02-14 06:27:00,31.6,25.5,29.95,WNW,288,0.0,-999.0,78,0.00,,,0.00,WeatherSnoop3.0,2013-02-14 12:27:00,
2013-02-14 06:32:00,31.7,25.9,29.95,NNW,338,0.0,-999.0,79,0.00,,,0.00,WeatherSnoop3.0,2013-02-14 12:32:00,
2013-02-14 06:37:00,31.8,26.0,29.95,NNW,339,0.0,-999.0,79,0.00,,,0.00,WeatherSnoop3.0,2013-02-14 12:37:00,
2013-02-14 06:42:00,31.8,26.0,29.95,West,269,0.0,-999.0,79,0.00,,,0.00,WeatherSnoop3.0,2013-02-14 12:42:00,
2013-02-14 06:47:00,31.6,25.8,29.96,North,351,0.0,-999.0,79,0.00,,,0.00,WeatherSnoop3.0,2013-02-14 12:47:00,
2013-02-14 06:52:00,31.5,26.1,29.96,WNW,300,0.0,-999.0,80,0.00,,,0.00,WeatherSnoop3.0,2013-02-14 12:52:00,
2013-02-14 06:57:00,31.4,26.0,29.96,WNW,300,0.0,-999.0,80,0.00,,,0.00,WeatherSnoop3.0,2013-02-14 12:57:00,
2013-02-14 07:02:00,31.1,25.7,29.97,WNW,300,0.0,-999.0,80,0.00,,,0.00,WeatherSnoop3.0,2013-02-14 13:02:00,
2013-02-14 07:07:00,31.0,26.2,29.97,NE,43,1.0,-999.0,82,0.00,,,0.00,WeatherSnoop3.0,2013-02-14 13:07:00,
2013-02-14 07:12:00,31.8,26.6,29.97,NNW,347,2.0,-999.0,81,0.00,,,0.00,WeatherSnoop3.0,2013-02-14 13:12:00,
2013-02-14 07:17:00,32.5,27.0,29.97,West,278,0.0,-999.0,80,0.00,,,0.00,WeatherSnoop3.0,2013-02-14 13:17:00,
2013-02-14 07:22:00,33.1,27.3,29.97,NNW,332,0.0,-999.0,79,0.00,,,0.00,WeatherSnoop3.0,2013-02-14 13:22:00,
2013-02-14 07:27:00,33.4,27.6,29.98,North,11,0.0,-999.0,79,0.00,,,0.00,WeatherSnoop3.0,2013-02-14 13:27:00,
2013-02-14 07:32:00,33.6,27.8,29.98,NW,325,0.0,-999.0,79,0.00,,,0.00,WeatherSnoop3.0,2013-02-14 13:32:00,
2013-02-14 07:37:00,33.7,27.9,29.98,NNW,330,0.0,-999.0,79,0.00,,,0.00,WeatherSnoop3.0,2013-02-14 13:37:00,
2013-02-14 07:42:00,33.8,28.0,29.98,NNE,16,0.0,-999.0,79,0.00,,,0.00,WeatherSnoop3.0,2013-02-14 13:42:00,
2013-02-14 07:47:00,33.9,28.1,29.99,WSW,243,1.0,-999.0,79,0.00,,,0.00,WeatherSnoop3.0,2013-02-14 13:47:00,
2013-02-14 07:52:00,34.1,28.3,29.99,ENE,68,1.0,-999.0,79,0.00,,,0.00,WeatherSnoop3.0,2013-02-14 13:52:00,
2013-02-14 07:57:00,34.5,28.7,29.99,NNW,338,1.0,-999.0,79,0.00,,,0.00,WeatherSnoop3.0,2013-02-14 13:57:00,
2013-02-14 08:02:00,34.9,28.8,30.00,NE,52,0.0,-999.0,78,0.00,,,0.00,WeatherSnoop3.0,2013-02-14 14:02:00,
2013-02-14 08:07:00,35.1,28.9,30.00,North,4,0.0,-999.0,78,0.00,,,0.00,WeatherSnoop3.0,2013-02-14 14:07:00,
2013-02-14 08:12:00,35.2,29.0,30.00,NNE,15,0.0,-999.0,78,0.00,,,0.00,WeatherSnoop3.0,2013-02-14 14:12:00,
2013-02-14 08:17:00,35.4,29.2,30.00,NNE,23,0.0,-999.0,78,0.00,,,0.00,WeatherSnoop3.0,2013-02-14 14:17:00,
2013-02-14 08:22:00,35.7,29.5,30.00,North,351,1.0,-999.0,78,0.00,,,0.00,WeatherSnoop3.0,2013-02-14 14:22:00,
2013-02-14 08:27:00,36.0,29.5,30.00,NE,49,1.0,-999.0,77,0.00,,,0.00,WeatherSnoop3.0,2013-02-14 14:27:00,
2013-02-14 08:32:00,36.5,29.7,30.00,NE,39,2.0,-999.0,76,0.00,,,0.00,WeatherSnoop3.0,2013-02-14 14:32:00,
2013-02-14 08:37:00,36.9,30.1,30.01,NE,37,3.0,-999.0,76,0.00,,,0.00,WeatherSnoop3.0,2013-02-14 14:37:00,
2013-02-14 08:42:00,37.3,30.1,30.01,NNW,347,3.0,-999.0,75,0.00,,,0.00,WeatherSnoop3.0,2013-02-14 14:42:00,
2013-02-14 08:47:00,37.8,30.6,30.01,NNE,27,3.0,-999.0,75,0.00,,,0.00,WeatherSnoop3.0,2013-02-14 14:47:00,
2013-02-14 08:52:00,38.2,30.7,30.01,NE,40,1.0,-999.0,74,0.00,,,0.00,WeatherSnoop3.0,2013-02-14 14:52:00,
2013-02-14 08:57:00,38.6,31.0,30.02,NNE,20,3.0,-999.0,74,0.00,,,0.00,WeatherSnoop3.0,2013-02-14 14:57:00,
2013-02-14 09:02:00,39.0,31.1,30.02,North,8,3.0,-999.0,73,0.00,,,0.00,WeatherSnoop3.0,2013-02-14 15:02:00,
2013-02-14 09:07:00,39.4,31.5,30.02,NNE,13,3.0,-999.0,73,0.00,,,0.00,WeatherSnoop3.0,2013-02-14 15:07:00,
2013-02-14 09:12:00,39.7,31.4,30.02,NE,39,5.0,-999.0,72,0.00,,,0.00,WeatherSnoop3.0,2013-02-14 15:12:00,
2013-02-14 09:17:00,40.1,31.8,30.02,NNE,32,3.0,-999.0,72,0.00,,,0.00,WeatherSnoop3.0,2013-02-14 15:17:00,
2013-02-14 09:22:00,40.5,31.8,30.02,North,6,5.0,-999.0,71,0.00,,,0.00,WeatherSnoop3.0,2013-02-14 15:22:00,
2013-02-14 09:27:00,41.1,32.4,30.02,NE,46,2.0,-999.0,71,0.00,,,0.00,WeatherSnoop3.0,2013-02-14 15:27:00,
2013-02-14 09:32:00,41.7,32.6,30.02,North,11,3.0,-999.0,70,0.00,,,0.00,WeatherSnoop3.0,2013-02-14 15:32:00,
2013-02-14 09:37:00,42.1,32.7,30.03,NE,46,1.0,-999.0,69,0.00,,,0.00,WeatherSnoop3.0,2013-02-14 15:37:00,
2013-02-14 09:42:00,42.4,32.6,30.03,North,8,1.0,-999.0,68,0.00,,,0.00,WeatherSnoop3.0,2013-02-14 15:42:00,
2013-02-14 09:47:00,42.5,32.3,30.03,North,355,4.0,-999.0,67,0.00,,,0.00,WeatherSnoop3.0,2013-02-14 15:47:00,
2013-02-14 09:52:00,42.7,32.9,30.03,NNW,347,2.0,-999.0,68,0.00,,,0.00,WeatherSnoop3.0,2013-02-14 15:52:00,
2013-02-14 09:57:00,43.1,32.9,30.03,NNE,12,4.0,-999.0,67,0.00,,,0.00,WeatherSnoop3.0,2013-02-14 15:57:00,
2013-02-14 10:02:00,43.1,32.9,30.03,NNE,29,3.0,-999.0,67,0.00,,,0.00,WeatherSnoop3.0,2013-02-14 16:02:00,
2013-02-14 10:07:00,43.3,32.7,30.03,NNE,24,5.0,-999.0,66,0.00,,,0.00,WeatherSnoop3.0,2013-02-14 16:07:00,
2013-02-14 10:12:00,43.6,32.6,30.03,North,359,4.0,-999.0,65,0.00,,,0.00,WeatherSnoop3.0,2013-02-14 16:12:00,
2013-02-14 10:17:00,43.9,32.9,30.03,SSW,212,2.0,-999.0,65,0.00,,,0.00,WeatherSnoop3.0,2013-02-14 16:17:00,
2013-02-14 10:22:00,44.1,33.1,30.03,North,360,7.0,-999.0,65,0.00,,,0.00,WeatherSnoop3.0,2013-02-14 16:22:00,
2013-02-14 10:27:00,44.6,33.2,30.03,NE,34,5.0,-999.0,64,0.00,,,0.00,WeatherSnoop3.0,2013-02-14 16:27:00,
2013-02-14 10:32:00,44.7,32.9,30.03,NNE,19,5.0,-999.0,63,0.00,,,0.00,WeatherSnoop3.0,2013-02-14 16:32:00,
2013-02-14 10:37:00,45.1,33.3,30.03,NE,37,3.0,-999.0,63,0.00,,,0.00,WeatherSnoop3.0,2013-02-14 16:37:00,
2013-02-14 10:42:00,45.6,32.9,30.03,North,10,2.0,-999.0,61,0.00,,,0.00,WeatherSnoop3.0,2013-02-14 16:42:00,
2013-02-14 10:47:00,45.8,33.1,30.03,NNE,12,5.0,-999.0,61,0.00,,,0.00,WeatherSnoop3.0,2013-02-14 16:47:00,
2013-02-14 10:52:00,46.1,33.4,30.03,NE,39,4.0,-999.0,61,0.00,,,0.00,WeatherSnoop3.0,2013-02-14 16:52:00,
2013-02-14 10:57:00,46.1,33.0,30.03,North,6,4.0,-999.0,60,0.00,,,0.00,WeatherSnoop3.0,2013-02-14 16:57:00,
2013-02-14 11:02:00,46.5,33.0,30.03,NE,37,5.0,-999.0,59,0.00,,,0.00,WeatherSnoop3.0,2013-02-14 17:02:00,
2013-02-14 11:07:00,46.6,33.0,30.03,NNW,342,7.0,-999.0,59,0.00,,,0.00,WeatherSnoop3.0,2013-02-14 17:07:00,
2013-02-14 11:12:00,46.9,32.9,30.03,NE,49,6.0,-999.0,58,0.00,,,0.00,WeatherSnoop3.0,2013-02-14 17:12:00,
2013-02-14 11:17:00,47.2,33.2,30.04,NE,36,10.0,-999.0,58,0.00,,,0.00,WeatherSnoop3.0,2013-02-14 17:17:00,
2013-02-14 11:22:00,47.0,32.1,30.04,North,349,7.0,-999.0,56,0.00,,,0.00,WeatherSnoop3.0,2013-02-14 17:22:00,
2013-02-14 11:27:00,47.0,32.1,30.04,ENE,60,4.0,-999.0,56,0.00,,,0.00,WeatherSnoop3.0,2013-02-14 17:27:00,
2013-02-14 11:32:00,47.0,31.7,30.04,NNE,24,3.0,-999.0,55,0.00,,,0.00,WeatherSnoop3.0,2013-02-14 17:32:00,
2013-02-14 11:37:00,46.8,31.5,30.04,North,357,6.0,-999.0,55,0.00,,,0.00,WeatherSnoop3.0,2013-02-14 17:37:00,
2013-02-14 11:42:00,46.9,32.0,30.04,NNE,26,9.0,-999.0,56,0.00,,,0.00,WeatherSnoop3.0,2013-02-14 17:42:00,
2013-02-14 11:47:00,46.9,32.0,30.04,NE,46,4.0,-999.0,56,0.00,,,0.00,WeatherSnoop3.0,2013-02-14 17:47:00,
2013-02-14 11:52:00,46.9,31.6,30.04,NNW,327,4.0,-999.0,55,0.00,,,0.00,WeatherSnoop3.0,2013-02-14 17:52:00,
2013-02-14 11:57:00,46.9,31.6,30.04,NNE,16,7.0,-999.0,55,0.00,,,0.00,WeatherSnoop3.0,2013-02-14 17:57:00,
2013-02-14 12:02:00,46.9,32.0,30.04,ENE,78,4.0,-999.0,56,0.00,,,0.00,WeatherSnoop3.0,2013-02-14 18:02:00,
2013-02-14 12:07:00,47.3,32.0,30.04,North,353,7.0,-999.0,55,0.00,,,0.00,WeatherSnoop3.0,2013-02-14 18:07:00,
2013-02-14 12:12:00,47.5,32.1,30.04,NNE,22,6.0,-999.0,55,0.00,,,0.00,WeatherSnoop3.0,2013-02-14 18:12:00,
2013-02-14 12:17:00,47.2,31.9,30.05,NE,53,5.0,-999.0,55,0.00,,,0.00,WeatherSnoop3.0,2013-02-14 18:17:00,
2013-02-14 12:22:00,47.5,32.1,30.04,NE,44,4.0,-999.0,55,0.00,,,0.00,WeatherSnoop3.0,2013-02-14 18:22:00,
2013-02-14 12:27:00,47.5,32.1,30.05,NE,41,3.0,-999.0,55,0.00,,,0.00,WeatherSnoop3.0,2013-02-14 18:27:00,
2013-02-14 12:32:00,47.8,32.4,30.05,NNE,32,4.0,-999.0,55,0.00,,,0.00,WeatherSnoop3.0,2013-02-14 18:32:00,
2013-02-14 12:42:00,47.1,31.8,30.05,North,353,5.0,-999.0,55,0.00,,,0.00,WeatherSnoop3.0,2013-02-14 18:42:00,
2013-02-14 12:47:00,47.0,31.7,30.04,North,354,2.0,-999.0,55,0.00,,,0.00,WeatherSnoop3.0,2013-02-14 18:47:00,
2013-02-14 12:52:00,46.9,31.6,30.05,NNE,15,6.0,-999.0,55,0.00,,,0.00,WeatherSnoop3.0,2013-02-14 18:52:00,
2013-02-14 12:57:00,46.8,31.9,30.05,NNW,340,1.0,-999.0,56,0.00,,,0.00,WeatherSnoop3.0,2013-02-14 18:57:00,
2013-02-14 13:02:00,47.0,32.1,30.05,North,11,1.0,-999.0,56,0.00,,,0.00,WeatherSnoop3.0,2013-02-14 19:02:00,
2013-02-14 13:07:00,47.1,31.8,30.04,SW,215,1.0,-999.0,55,0.00,,,0.00,WeatherSnoop3.0,2013-02-14 19:07:00,
2013-02-14 13:12:00,47.3,32.0,30.04,NNE,22,2.0,-999.0,55,0.00,,,0.00,WeatherSnoop3.0,2013-02-14 19:12:00,
2013-02-14 13:17:00,47.3,32.0,30.04,North,358,1.0,-999.0,55,0.00,,,0.00,WeatherSnoop3.0,2013-02-14 19:17:00,
2013-02-14 13:22:00,47.5,31.7,30.04,ENE,63,0.0,-999.0,54,0.00,,,0.00,WeatherSnoop3.0,2013-02-14 19:22:00,
2013-02-14 13:27:00,47.8,32.0,30.04,NE,35,4.0,-999.0,54,0.00,,,0.00,WeatherSnoop3.0,2013-02-14 19:27:00,
2013-02-14 13:32:00,48.0,32.2,30.03,NNW,333,2.0,-999.0,54,0.00,,,0.00,WeatherSnoop3.0,2013-02-14 19:32:00,
2013-02-14 13:37:00,48.2,31.9,30.03,NNE,13,0.0,-999.0,53,0.00,,,0.00,WeatherSnoop3.0,2013-02-14 19:37:00,
2013-02-14 13:42:00,48.2,31.9,30.03,North,1,3.0,-999.0,53,0.00,,,0.00,WeatherSnoop3.0,2013-02-14 19:42:00,
2013-02-14 13:47:00,48.5,32.2,30.03,West,276,1.0,-999.0,53,0.00,,,0.00,WeatherSnoop3.0,2013-02-14 19:47:00,
2013-02-14 13:52:00,48.9,32.1,30.03,North,360,1.0,-999.0,52,0.00,,,0.00,WeatherSnoop3.0,2013-02-14 19:52:00,
2013-02-14 13:57:00,49.3,32.9,30.03,West,269,2.0,-999.0,53,0.00,,,0.00,WeatherSnoop3.0,2013-02-14 19:57:00,
2013-02-14 14:02:00,49.8,32.4,30.03,NW,311,3.0,-999.0,51,0.00,,,0.00,WeatherSnoop3.0,2013-02-14 20:02:00,
2013-02-14 14:07:00,50.0,31.6,30.03,NE,43,1.0,-999.0,49,0.00,,,0.00,WeatherSnoop3.0,2013-02-14 20:07:00,
2013-02-14 14:12:00,50.2,31.8,30.03,SSE,156,0.0,-999.0,49,0.00,,,0.00,WeatherSnoop3.0,2013-02-14 20:12:00,
2013-02-14 14:17:00,50.1,31.2,30.03,NNE,30,5.0,-999.0,48,0.00,,,0.00,WeatherSnoop3.0,2013-02-14 20:17:00,
2013-02-14 14:22:00,50.7,31.7,30.02,North,11,3.0,-999.0,48,0.00,,,0.00,WeatherSnoop3.0,2013-02-14 20:22:00,
2013-02-14 14:27:00,51.0,32.0,30.02,NNE,32,2.0,-999.0,48,0.00,,,0.00,WeatherSnoop3.0,2013-02-14 20:27:00,
2013-02-14 14:32:00,51.0,31.5,30.03,East,83,3.0,-999.0,47,0.00,,,0.00,WeatherSnoop3.0,2013-02-14 20:32:00,
2013-02-14 14:37:00,50.6,31.6,30.03,NNE,20,1.0,-999.0,48,0.00,,,0.00,WeatherSnoop3.0,2013-02-14 20:37:00,
2013-02-14 14:42:00,50.6,32.2,30.02,NE,49,2.0,-999.0,49,0.00,,,0.00,WeatherSnoop3.0,2013-02-14 20:42:00,
2013-02-14 14:47:00,50.6,32.2,30.03,NNW,331,2.0,-999.0,49,0.00,,,0.00,WeatherSnoop3.0,2013-02-14 20:47:00,
2013-02-14 14:52:00,50.7,30.7,30.03,NE,46,1.0,-999.0,46,0.00,,,0.00,WeatherSnoop3.0,2013-02-14 20:52:00,
2013-02-14 14:57:00,51.0,31.5,30.03,NE,52,0.0,-999.0,47,0.00,,,0.00,WeatherSnoop3.0,2013-02-14 20:57:00,
2013-02-14 15:02:00,51.1,31.6,30.03,West,278,4.0,-999.0,47,0.00,,,0.00,WeatherSnoop3.0,2013-02-14 21:02:00,
2013-02-14 15:07:00,51.0,31.5,30.03,North,11,0.0,-999.0,47,0.00,,,0.00,WeatherSnoop3.0,2013-02-14 21:07:00,
2013-02-14 15:12:00,50.8,30.8,30.03,West,271,2.0,-999.0,46,0.00,,,0.00,WeatherSnoop3.0,2013-02-14 21:12:00,
2013-02-14 15:17:00,50.7,30.7,30.04,WSW,253,0.0,-999.0,46,0.00,,,0.00,WeatherSnoop3.0,2013-02-14 21:17:00,
2013-02-14 15:22:00,50.5,30.5,30.04,North,354,1.0,-999.0,46,0.00,,,0.00,WeatherSnoop3.0,2013-02-14 21:22:00,
2013-02-14 15:27:00,50.6,30.1,30.04,WSW,256,0.0,-999.0,45,0.00,,,0.00,WeatherSnoop3.0,2013-02-14 21:27:00,
2013-02-14 15:32:00,50.6,28.9,30.04,West,274,2.0,-999.0,43,0.00,,,0.00,WeatherSnoop3.0,2013-02-14 21:32:00,
2013-02-14 15:37:00,50.4,29.9,30.04,West,279,3.0,-999.0,45,0.00,,,0.00,WeatherSnoop3.0,2013-02-14 21:37:00,
2013-02-14 15:42:00,50.4,29.3,30.04,NNE,25,1.0,-999.0,44,0.00,,,0.00,WeatherSnoop3.0,2013-02-14 21:42:00,
2013-02-14 15:47:00,50.2,29.7,30.05,West,262,0.0,-999.0,45,0.00,,,0.00,WeatherSnoop3.0,2013-02-14 21:47:00,
2013-02-14 15:52:00,50.1,29.6,30.05,North,359,3.0,-999.0,45,0.00,,,0.00,WeatherSnoop3.0,2013-02-14 21:52:00,
2013-02-14 15:57:00,49.7,29.8,30.05,West,277,3.0,-999.0,46,0.00,,,0.00,WeatherSnoop3.0,2013-02-14 21:57:00,
2013-02-14 16:02:00,49.2,29.8,30.05,ENE,68,2.0,-999.0,47,0.00,,,0.00,WeatherSnoop3.0,2013-02-14 22:02:00,
2013-02-14 16:07:00,48.8,29.5,30.06,East,83,10.0,-999.0,47,0.00,,,0.00,WeatherSnoop3.0,2013-02-14 22:07:00,
2013-02-14 16:12:00,48.4,30.1,30.06,SW,222,2.0,-999.0,49,0.00,,,0.00,WeatherSnoop3.0,2013-02-14 22:12:00,
2013-02-14 16:17:00,48.0,29.8,30.06,NNW,340,1.0,-999.0,49,0.00,,,0.00,WeatherSnoop3.0,2013-02-14 22:17:00,
2013-02-14 16:22:00,47.7,30.5,30.06,NNE,26,5.0,-999.0,51,0.00,,,0.00,WeatherSnoop3.0,2013-02-14 22:22:00,
2013-02-14 16:27:00,47.1,30.4,30.07,NW,318,9.0,-999.0,52,0.00,,,0.00,WeatherSnoop3.0,2013-02-14 22:27:00,
2013-02-14 16:32:00,46.8,30.6,30.07,NE,43,3.0,-999.0,53,0.00,,,0.00,WeatherSnoop3.0,2013-02-14 22:32:00,
2013-02-14 16:37:00,46.7,30.5,30.07,North,8,4.0,-999.0,53,0.00,,,0.00,WeatherSnoop3.0,2013-02-14 22:37:00,
2013-02-14 16:42:00,46.5,29.8,30.07,NNE,16,3.0,-999.0,52,0.00,,,0.00,WeatherSnoop3.0,2013-02-14 22:42:00,
2013-02-14 16:47:00,46.5,29.8,30.07,West,274,2.0,-999.0,52,0.00,,,0.00,WeatherSnoop3.0,2013-02-14 22:47:00,
2013-02-14 16:52:00,46.4,27.8,30.07,WNW,293,1.0,-999.0,48,0.00,,,0.00,WeatherSnoop3.0,2013-02-14 22:52:00,
2013-02-14 16:57:00,46.5,27.4,30.07,WNW,300,1.0,-999.0,47,0.00,,,0.00,WeatherSnoop3.0,2013-02-14 22:57:00,
2013-02-14 17:02:00,46.4,27.8,30.08,NE,36,2.0,-999.0,48,0.00,,,0.00,WeatherSnoop3.0,2013-02-14 23:02:00,
2013-02-14 17:07:00,46.1,28.0,30.08,NE,41,9.0,-999.0,49,0.00,,,0.00,WeatherSnoop3.0,2013-02-14 23:07:00,
2013-02-14 17:12:00,45.7,28.6,30.08,NE,43,3.0,-999.0,51,0.00,,,0.00,WeatherSnoop3.0,2013-02-14 23:12:00,
2013-02-14 17:17:00,45.5,29.4,30.09,NE,47,6.0,-999.0,53,0.00,,,0.00,WeatherSnoop3.0,2013-02-14 23:17:00,
2013-02-14 17:22:00,45.2,30.0,30.09,North,349,8.0,-999.0,55,0.00,,,0.00,WeatherSnoop3.0,2013-02-14 23:22:00,
2013-02-14 17:27:00,44.5,31.1,30.09,WSW,251,2.0,-999.0,59,0.00,,,0.00,WeatherSnoop3.0,2013-02-14 23:27:00,
2013-02-14 17:32:00,44.1,31.5,30.09,NE,49,4.0,-999.0,61,0.00,,,0.00,WeatherSnoop3.0,2013-02-14 23:32:00,
2013-02-14 17:37:00,43.7,31.1,30.09,NNE,18,3.0,-999.0,61,0.00,,,0.00,WeatherSnoop3.0,2013-02-14 23:37:00,
2013-02-14 17:42:00,43.5,31.0,30.09,North,8,4.0,-999.0,61,0.00,,,0.00,WeatherSnoop3.0,2013-02-14 23:42:00,
2013-02-14 17:47:00,43.3,30.8,30.09,NE,55,1.0,-999.0,61,0.00,,,0.00,WeatherSnoop3.0,2013-02-14 23:47:00,
2013-02-14 17:52:00,43.2,30.7,30.10,NE,39,1.0,-999.0,61,0.00,,,0.00,WeatherSnoop3.0,2013-02-14 23:52:00,
2013-02-14 17:57:00,43.1,30.6,30.10,SSE,162,0.0,-999.0,61,0.00,,,0.00,WeatherSnoop3.0,2013-02-14 23:57:00,
2013-02-14 18:02:00,43.0,30.5,30.10,NNE,32,0.0,-999.0,61,0.00,,,0.00,WeatherSnoop3.0,2013-02-15 00:02:00,
2013-02-14 18:07:00,42.9,30.4,30.10,North,1,0.0,-999.0,61,0.00,,,0.00,WeatherSnoop3.0,2013-02-15 00:07:00,
2013-02-14 18:12:00,42.7,30.2,30.10,NNW,346,0.0,-999.0,61,0.00,,,0.00,WeatherSnoop3.0,2013-02-15 00:12:00,
2013-02-14 18:17:00,42.6,30.1,30.10,WNW,284,1.0,-999.0,61,0.00,,,0.00,WeatherSnoop3.0,2013-02-15 00:17:00,
2013-02-14 18:22:00,42.5,30.0,30.11,West,277,1.0,-999.0,61,0.00,,,0.00,WeatherSnoop3.0,2013-02-15 00:22:00,
2013-02-14 18:27:00,42.4,30.3,30.11,WNW,285,2.0,-999.0,62,0.00,,,0.00,WeatherSnoop3.0,2013-02-15 00:27:00,
2013-02-14 18:32:00,42.3,30.6,30.11,WNW,283,2.0,-999.0,63,0.00,,,0.00,WeatherSnoop3.0,2013-02-15 00:32:00,
2013-02-14 18:37:00,42.1,30.4,30.11,West,280,0.0,-999.0,63,0.00,,,0.00,WeatherSnoop3.0,2013-02-15 00:37:00,
2013-02-14 18:42:00,42.0,30.7,30.11,West,273,0.0,-999.0,64,0.00,,,0.00,WeatherSnoop3.0,2013-02-15 00:42:00,
2013-02-14 18:47:00,41.9,30.6,30.12,West,271,1.0,-999.0,64,0.00,,,0.00,WeatherSnoop3.0,2013-02-15 00:47:00,
2013-02-14 18:52:00,41.6,30.7,30.12,West,274,0.0,-999.0,65,0.00,,,0.00,WeatherSnoop3.0,2013-02-15 00:52:00,
2013-02-14 18:57:00,41.4,30.9,30.12,WNW,285,1.0,-999.0,66,0.00,,,0.00,WeatherSnoop3.0,2013-02-15 00:57:00,
2013-02-14 19:02:00,41.2,31.1,30.12,West,280,1.0,-999.0,67,0.00,,,0.00,WeatherSnoop3.0,2013-02-15 01:02:00,
2013-02-14 19:07:00,41.0,30.9,30.12,West,273,1.0,-999.0,67,0.00,,,0.00,WeatherSnoop3.0,2013-02-15 01:07:00,
2013-02-14 19:12:00,40.8,31.1,30.12,West,274,0.0,-999.0,68,0.00,,,0.00,WeatherSnoop3.0,2013-02-15 01:12:00,
2013-02-14 19:17:00,40.4,31.0,30.13,West,280,0.0,-999.0,69,0.00,,,0.00,WeatherSnoop3.0,2013-02-15 01:17:00,
2013-02-14 19:22:00,40.0,31.0,30.13,West,280,1.0,-999.0,70,0.00,,,0.00,WeatherSnoop3.0,2013-02-15 01:22:00,
2013-02-14 19:27:00,39.6,31.0,30.13,West,280,0.0,-999.0,71,0.00,,,0.00,WeatherSnoop3.0,2013-02-15 01:27:00,
2013-02-14 19:32:00,39.2,30.6,30.13,West,280,0.0,-999.0,71,0.00,,,0.00,WeatherSnoop3.0,2013-02-15 01:32:00,
2013-02-14 19:37:00,38.7,30.8,30.13,West,278,0.0,-999.0,73,0.00,,,0.00,WeatherSnoop3.0,2013-02-15 01:37:00,
2013-02-14 19:42:00,38.2,30.7,30.14,West,278,0.0,-999.0,74,0.00,,,0.00,WeatherSnoop3.0,2013-02-15 01:42:00,
2013-02-14 19:47:00,37.8,30.6,30.14,West,278,0.0,-999.0,75,0.00,,,0.00,WeatherSnoop3.0,2013-02-15 01:47:00,
2013-02-14 19:52:00,37.3,30.4,30.14,West,280,1.0,-999.0,76,0.00,,,0.00,WeatherSnoop3.0,2013-02-15 01:52:00,
2013-02-14 19:57:00,37.0,30.5,30.14,West,280,0.0,-999.0,77,0.00,,,0.00,WeatherSnoop3.0,2013-02-15 01:57:00,
2013-02-14 20:02:00,36.7,30.5,30.15,West,280,0.0,-999.0,78,0.00,,,0.00,WeatherSnoop3.0,2013-02-15 02:02:00,
2013-02-14 20:07:00,36.4,30.5,30.15,West,276,1.0,-999.0,79,0.00,,,0.00,WeatherSnoop3.0,2013-02-15 02:07:00,
2013-02-14 20:12:00,36.2,30.6,30.15,West,278,1.0,-999.0,80,0.00,,,0.00,WeatherSnoop3.0,2013-02-15 02:12:00,
2013-02-14 20:17:00,36.1,30.5,30.15,West,277,0.0,-999.0,80,0.00,,,0.00,WeatherSnoop3.0,2013-02-15 02:17:00,
2013-02-14 20:22:00,36.0,30.4,30.15,WNW,282,1.0,-999.0,80,0.00,,,0.00,WeatherSnoop3.0,2013-02-15 02:22:00,
2013-02-14 20:27:00,35.8,30.6,30.16,WNW,284,1.0,-999.0,81,0.00,,,0.00,WeatherSnoop3.0,2013-02-15 02:27:00,
2013-02-14 20:32:00,35.5,30.3,30.16,WNW,283,0.0,-999.0,81,0.00,,,0.00,WeatherSnoop3.0,2013-02-15 02:32:00,
2013-02-14 20:37:00,35.3,30.4,30.16,West,281,0.0,-999.0,82,0.00,,,0.00,WeatherSnoop3.0,2013-02-15 02:37:00,
2013-02-14 20:42:00,35.0,30.4,30.16,West,280,0.0,-999.0,83,0.00,,,0.00,WeatherSnoop3.0,2013-02-15 02:42:00,
2013-02-14 20:47:00,34.7,30.1,30.17,West,280,0.0,-999.0,83,0.00,,,0.00,WeatherSnoop3.0,2013-02-15 02:47:00,
2013-02-14 20:52:00,34.2,29.6,30.17,West,278,0.0,-999.0,83,0.00,,,0.00,WeatherSnoop3.0,2013-02-15 02:52:00,
2013-02-14 20:57:00,34.0,29.7,30.17,West,281,0.0,-999.0,84,0.00,,,0.00,WeatherSnoop3.0,2013-02-15 02:57:00,
2013-02-14 21:02:00,34.3,30.6,30.17,West,276,1.0,-999.0,86,0.00,,,0.00,WeatherSnoop3.0,2013-02-15 03:02:00,
2013-02-14 21:07:00,34.5,30.8,30.18,West,271,1.0,-999.0,86,0.00,,,0.00,WeatherSnoop3.0,2013-02-15 03:07:00,
2013-02-14 21:12:00,34.7,30.9,30.18,West,277,1.0,-999.0,86,0.00,,,0.00,WeatherSnoop3.0,2013-02-15 03:12:00,
2013-02-14 21:17:00,34.9,30.6,30.19,WNW,284,1.0,-999.0,84,0.00,,,0.00,WeatherSnoop3.0,2013-02-15 03:17:00,
2013-02-14 21:22:00,35.3,30.7,30.19,West,276,2.0,-999.0,83,0.00,,,0.00,WeatherSnoop3.0,2013-02-15 03:22:00,
2013-02-14 21:27:00,35.6,30.4,30.19,West,273,1.0,-999.0,81,0.00,,,0.00,WeatherSnoop3.0,2013-02-15 03:27:00,
2013-02-14 21:32:00,35.5,30.3,30.19,West,277,2.0,-999.0,81,0.00,,,0.00,WeatherSnoop3.0,2013-02-15 03:32:00,
2013-02-14 21:37:00,35.9,28.8,30.19,NNW,346,7.0,-999.0,75,0.00,,,0.00,WeatherSnoop3.0,2013-02-15 03:37:00,
2013-02-14 21:42:00,37.2,27.6,30.20,North,359,5.0,-999.0,68,0.00,,,0.00,WeatherSnoop3.0,2013-02-15 03:42:00,
2013-02-14 21:47:00,37.9,26.8,30.20,NE,53,4.0,-999.0,64,0.00,,,0.00,WeatherSnoop3.0,2013-02-15 03:47:00,
2013-02-14 21:52:00,38.3,26.0,30.20,NNE,26,6.0,-999.0,61,0.00,,,0.00,WeatherSnoop3.0,2013-02-15 03:52:00,
2013-02-14 21:57:00,38.3,24.8,30.20,North,6,2.0,-999.0,58,0.00,,,0.00,WeatherSnoop3.0,2013-02-15 03:57:00,
2013-02-14 22:02:00,38.4,23.7,30.21,NE,34,11.0,-999.0,55,0.00,,,0.00,WeatherSnoop3.0,2013-02-15 04:02:00,
2013-02-14 22:07:00,38.3,23.1,30.21,North,4,7.0,-999.0,54,0.00,,,0.00,WeatherSnoop3.0,2013-02-15 04:07:00,
2013-02-14 22:12:00,38.1,22.5,30.21,NE,53,12.0,-999.0,53,0.00,,,0.00,WeatherSnoop3.0,2013-02-15 04:12:00,
2013-02-14 22:17:00,38.1,22.1,30.21,NNE,26,10.0,-999.0,52,0.00,,,0.00,WeatherSnoop3.0,2013-02-15 04:17:00,
2013-02-14 22:22:00,37.8,21.3,30.21,NNE,13,6.0,-999.0,51,0.00,,,0.00,WeatherSnoop3.0,2013-02-15 04:22:00,
2013-02-14 22:27:00,37.7,21.2,30.21,North,11,5.0,-999.0,51,0.00,,,0.00,WeatherSnoop3.0,2013-02-15 04:27:00,
2013-02-14 22:32:00,37.7,20.3,30.21,WNW,300,4.0,-999.0,49,0.00,,,0.00,WeatherSnoop3.0,2013-02-15 04:32:00,
2013-02-14 22:37:00,37.4,19.5,30.21,NNE,20,10.0,-999.0,48,0.00,,,0.00,WeatherSnoop3.0,2013-02-15 04:37:00,
2013-02-14 22:42:00,37.2,18.9,30.22,North,356,7.0,-999.0,47,0.00,,,0.00,WeatherSnoop3.0,2013-02-15 04:42:00,
2013-02-14 22:47:00,36.8,19.0,30.22,ENE,58,7.0,-999.0,48,0.00,,,0.00,WeatherSnoop3.0,2013-02-15 04:47:00,
2013-02-14 22:52:00,36.4,19.1,30.22,NE,34,6.0,-999.0,49,0.00,,,0.00,WeatherSnoop3.0,2013-02-15 04:52:00,
2013-02-14 22:57:00,35.9,19.1,30.22,North,9,4.0,-999.0,50,0.00,,,0.00,WeatherSnoop3.0,2013-02-15 04:57:00,
2013-02-14 23:02:00,35.8,19.5,30.22,North,358,7.0,-999.0,51,0.00,,,0.00,WeatherSnoop3.0,2013-02-15 05:02:00,
2013-02-14 23:07:00,35.7,19.4,30.22,NE,47,2.0,-999.0,51,0.00,,,0.00,WeatherSnoop3.0,2013-02-15 05:07:00,
2013-02-14 23:12:00,35.5,19.6,30.22,NNE,18,5.0,-999.0,52,0.00,,,0.00,WeatherSnoop3.0,2013-02-15 05:12:00,
2013-02-14 23:17:00,35.5,20.1,30.22,NW,312,5.0,-999.0,53,0.00,,,0.00,WeatherSnoop3.0,2013-02-15 05:17:00,
2013-02-14 23:22:00,35.4,20.0,30.23,NNE,29,5.0,-999.0,53,0.00,,,0.00,WeatherSnoop3.0,2013-02-15 05:22:00,
2013-02-14 23:27:00,35.2,19.8,30.23,NNE,30,1.0,-999.0,53,0.00,,,0.00,WeatherSnoop3.0,2013-02-15 05:27:00,
2013-02-14 23:32:00,34.7,19.8,30.23,NW,322,2.0,-999.0,54,0.00,,,0.00,WeatherSnoop3.0,2013-02-15 05:32:00,
2013-02-14 23:37:00,34.2,19.7,30.23,ENE,63,2.0,-999.0,55,0.00,,,0.00,WeatherSnoop3.0,2013-02-15 05:37:00,
2013-02-14 23:42:00,33.9,19.9,30.23,North,9,5.0,-999.0,56,0.00,,,0.00,WeatherSnoop3.0,2013-02-15 05:42:00,
2013-02-14 23:47:00,33.5,19.9,30.24,North,8,1.0,-999.0,57,0.00,,,0.00,WeatherSnoop3.0,2013-02-15 05:47:00,
2013-02-14 23:52:00,33.2,20.0,30.24,NE,51,6.0,-999.0,58,0.00,,,0.00,WeatherSnoop3.0,2013-02-15 05:52:00,
2013-02-14 23:57:00,33.1,19.5,30.24,East,90,8.0,-999.0,57,0.00,,,0.00,WeatherSnoop3.0,2013-02-15 05:57:00,